This is the latest recevied weather packets stored in our database for station/object EA1HTW-13. If no packets are shown the sender has not sent any weather packets the latest 10 day(s).
| Time | Temp. | Humidity | Pressure | Rain* | Wind** | Luminosity | Snow |
|---|---|---|---|---|---|---|---|
| 1777636934 | 18.33° C | 68% | 1012.9 hPa | 0 mm | - | - | - |
| 1777636394 | 18.33° C | 66% | 1013 hPa | 0 mm | - | - | - |
| 1777635857 | 18.89° C | 67% | 1013 hPa | 0 mm | - | - | - |
| 1777635314 | 18.33° C | 66% | 1012.9 hPa | 0 mm | - | - | - |
| 1777634775 | 18.33° C | 65% | 1012.8 hPa | 0 mm | - | - | - |
| 1777634235 | 18.33° C | 64% | 1013 hPa | 0 mm | - | - | - |
| 1777633694 | 18.89° C | 64% | 1012.7 hPa | 0 mm | - | - | - |
| 1777633154 | 18.89° C | 64% | 1012.8 hPa | 0 mm | - | - | - |
| 1777632614 | 18.33° C | 65% | 1012.7 hPa | 0 mm | - | - | - |
| 1777632075 | 18.33° C | 64% | 1012.8 hPa | 0 mm | - | - | - |
| 1777631534 | 18.33° C | 64% | 1012.7 hPa | 0 mm | - | - | - |
| 1777630995 | 18.33° C | 64% | 1012.8 hPa | 0 mm | - | - | - |
| 1777630455 | 18.33° C | 63% | 1012.8 hPa | 0 mm | - | - | - |
| 1777629915 | 18.33° C | 62% | 1012.8 hPa | 0 mm | - | - | - |
| 1777629375 | 18.33° C | 63% | 1012.9 hPa | 0 mm | - | - | - |
| 1777628834 | 18.33° C | 62% | 1012.8 hPa | 0 mm | - | - | - |
| 1777628295 | 18.33° C | 63% | 1012.9 hPa | 0 mm | - | - | - |
| 1777627754 | 18.33° C | 65% | 1012.9 hPa | 0 mm | - | - | - |
| 1777627214 | 17.78° C | 65% | 1012.6 hPa | 0 mm | - | - | - |
| 1777626675 | 17.78° C | 66% | 1012.6 hPa | 0 mm | - | - | - |
| 1777626134 | 17.78° C | 67% | 1012.3 hPa | 0 mm | - | - | - |
| 1777625594 | 17.78° C | 69% | 1012.3 hPa | 0 mm | - | - | - |
| 1777625055 | 17.22° C | 70% | 1012.4 hPa | 0 mm | - | - | - |
| 1777624514 | 17.22° C | 73% | 1012.4 hPa | 0 mm | - | - | - |
| 1777623974 | 16.67° C | 75% | 1012.3 hPa | 0 mm | - | - | - |
* Rain latest hour (hover to see other rain measurements)
** Current wind speed in m/s (hover to see current wind gust speed)